TV
NORAD ID: 26824
Int'l Code: 2001-024A
Perigee: 35,777.8 km
Apogee: 35,808.5 km
Inclination: 0.0 °
Period: 1,436.1 minutes
Semi major axis: 42164 km
Launch date: June 9, 2001
Source: International Telecommunications Satellite Organiz (ITSO)
Comments: 72 C-band, 22 Ku-band, broadcasting, business services, direct-to-home TV broadcasting, telecommunications, VSAT networks; Atlantic Ocean region.
Two Line Element Set (TLE):
1 26824U 01024A 13143.08763059 -.00000139 00000-0 00000+0 0 869
2 26824 000.0110 005.2104 0003644 075.0437 174.1699 01.00273998 43813
Source: AFSPC
NASA's NSSDC Master Catalog entry for INTELSAT 901